Flag for Israel Weather past 2 weeks in Safed, Israel

Now
73 °F

Passing clouds.


Feels Like: 76 °F
Forecast: 60 / 76 °F
Wind: 5 mph from East

Location: Beirut Airport

Current Time: Oct 1, 2014 at 3:40:31 AM

Latest Report: Oct 1, 2014 at 3:00 AM


Visibility: N/A

Pressure: 29.98 "Hg

Humidity: 65%

Dew point: 61 °F

Location of SafedLocation

Historic Weather in Safed — Graph

°F

Safed temperature yesterday

Maximum temperature yesterday: 82 °F (at 2:00 PM)
Minimum temperature yesterday: 72 °F (at 4:00 AM)
Average temperature yesterday: 77 °F

Past Weeks' High & Low Weather Summary

 TemperatureHumidityPressure
High88 °F (Sep 27, 10:00 PM)83% (Sep 29, 6:00 AM)30.04 "Hg (Sep 29, 6:00 AM)
Low70 °F (Sep 29, 6:00 AM)25% (Sep 27, 10:00 PM)29.77 "Hg (Sep 17, 6:00 PM)
Average80 °F60%29.93 "Hg
* Reported Sep 16 2:00 AM — Oct 1 2:00 AM, Safed, Weather by CustomWeather, © 2014

Note: Actual official high and low records may vary slightly from our data, if they occured in-between our weather recording intervals... More about our weather records

Advertising

Safed weather history for previous 24 hours

 ConditionsComfort  
Time TempWeatherWind HumidityBarometerVisibility
2:00 AM
Oct 1
73 °FPassing clouds.5 mph65%29.98 "HgN/A
1:00 AM73 °FPassing clouds.5 mph65%29.98 "HgN/A
12:00 AM75 °FPassing clouds.3 mph61%30.01 "HgN/A
11:00 PM
Sep 30
75 °FPassing clouds.3 mph61%30.01 "HgN/A
10:00 PM77 °FPassing clouds.10 mph57%30.01 "HgN/A
9:00 PM77 °FPassing clouds.10 mph57%30.01 "HgN/A
8:00 PM77 °FPassing clouds.12 mph57%30.01 "HgN/A
7:00 PM77 °FScattered clouds.12 mph54%29.98 "HgN/A
6:00 PM79 °FScattered clouds.15 mph58%29.98 "HgN/A
5:00 PM81 °FScattered clouds.13 mph54%29.98 "HgN/A
4:00 PM81 °FScattered clouds.13 mph51%29.98 "HgN/A
3:00 PM82 °FScattered clouds.10 mph45%29.98 "HgN/A
2:00 PM82 °FScattered clouds.13 mph45%29.98 "HgN/A
1:00 PM81 °FScattered clouds.12 mph51%30.01 "HgN/A
12:00 PM81 °FPassing clouds.12 mph54%30.01 "HgN/A
11:00 AM79 °FScattered clouds.8 mph48%30.01 "HgN/A
10:00 AM79 °FPassing clouds.6 mph51%30.01 "HgN/A
9:00 AM79 °FPassing clouds.2 mph42%30.01 "HgN/A
8:00 AM73 °FScattered clouds.5 mph50%30.01 "HgN/A
7:00 AM72 °FPassing clouds.3 mph61%29.98 "HgN/A
6:00 AM72 °FPassing clouds.5 mph61%29.98 "HgN/A
5:00 AM72 °FPassing clouds.6 mph65%29.98 "HgN/A
4:00 AM72 °FPassing clouds.6 mph65%29.98 "HgN/A
3:00 AM73 °FPassing clouds.5 mph57%29.98 "HgN/A
Weather by CustomWeather, © 2014

See weather overviewHow to use our weather pages